STARLINK-30277 (57645 NORAD) Tracking and Keplerian Element Data

This shows tracking and keplerian element data for the satellite.

Feedback or suggestion? Click here.




ElementValue
Catalog57645
NameSTARLINK-30277
Epoch Orbit282
Epoch Day239.16667824
Epoch Year2023
RAAN94.3832
Inclination43.0015
Eccentricity0.0007071
Argument of Perigee173.4019
Mean Anonmoly240.2528
Mean Motion15.85603218
Decay Rate-0.00920242
L11 57645U 23122P 23239.16667824 -.00920242 00000+0 -40687-2 0 9993
L22 57645 43.0015 94.3832 0007071 173.4019 240.2528 15.85603218 2825



Live tracking and technical data element details for STARLINK-30277 (NORAD 57645). STARLINK-30277 can be tracked NOW for your location showing map with azimuth and elevation plus other details from your city location.







IsCatalogInMostPopularTable: catalog: 57645, numindb: 7
Update: records affected: 1



GetName: 57645 STARLINK-30277

Hit Count: updated at: Tue, 26 Sep 2023 13:06:58 GMT